Time,TemperatureF,DewpointF,PressureIn,WindDirection,WindDirectionDegrees,WindSpeedMPH,WindSpeedGustMPH,Humidity,HourlyPrecipIn,Conditions,Clouds,dailyrainin,SoftwareType,DateUTC
2013-07-29 00:05:00,70.6,70.0,29.91,SSW,205,0.0,0.0,97,0.01,,,0.45,weatherlink.com 1.10,2013-07-29 04:05:00,
2013-07-29 00:20:00,70.1,69.0,29.92,South,178,0.0,0.0,96,0.01,,,0.00,weatherlink.com 1.10,2013-07-29 04:20:00,
2013-07-29 00:35:00,69.7,69.0,29.91,South,178,0.0,1.0,97,0.00,,,0.00,weatherlink.com 1.10,2013-07-29 04:35:00,
2013-07-29 00:50:00,69.2,68.0,29.91,South,178,0.0,0.0,97,0.00,,,0.00,weatherlink.com 1.10,2013-07-29 04:50:00,
2013-07-29 01:05:00,69.0,68.0,29.91,South,178,1.0,1.0,97,0.00,,,0.00,weatherlink.com 1.10,2013-07-29 05:05:00,
2013-07-29 01:20:00,68.8,68.0,29.91,South,178,0.0,0.0,97,0.00,,,0.00,weatherlink.com 1.10,2013-07-29 05:20:00,
2013-07-29 01:35:00,68.6,68.0,29.90,SSW,195,1.0,1.0,97,0.00,,,0.00,weatherlink.com 1.10,2013-07-29 05:35:00,
2013-07-29 01:50:00,68.6,68.0,29.91,West,259,0.0,0.0,97,0.00,,,0.00,weatherlink.com 1.10,2013-07-29 05:50:00,
2013-07-29 02:05:00,68.6,68.0,29.91,West,259,0.0,1.0,97,0.00,,,0.00,weatherlink.com 1.10,2013-07-29 06:05:00,
2013-07-29 02:20:00,68.6,68.0,29.91,West,259,0.0,0.0,98,0.00,,,0.00,weatherlink.com 1.10,2013-07-29 06:20:00,
2013-07-29 02:36:00,68.6,68.0,29.92,West,259,0.0,0.0,98,0.00,,,0.00,weatherlink.com 1.10,2013-07-29 06:36:00,
2013-07-29 02:51:00,68.8,68.0,29.91,West,259,0.0,2.0,98,0.00,,,0.00,weatherlink.com 1.10,2013-07-29 06:51:00,
2013-07-29 03:06:00,68.8,68.0,29.92,West,270,0.0,3.0,98,0.01,,,0.01,weatherlink.com 1.10,2013-07-29 07:06:00,
2013-07-29 03:21:00,69.0,69.0,29.93,West,270,0.0,1.0,98,0.01,,,0.01,weatherlink.com 1.10,2013-07-29 07:21:00,
2013-07-29 03:36:00,69.0,69.0,29.92,West,271,0.0,3.0,98,0.01,,,0.01,weatherlink.com 1.10,2013-07-29 07:36:00,
2013-07-29 03:51:00,68.9,68.0,29.92,West,271,0.0,1.0,98,0.01,,,0.01,weatherlink.com 1.10,2013-07-29 07:51:00,
2013-07-29 04:06:00,68.8,68.0,29.91,West,271,0.0,0.0,98,0.00,,,0.01,weatherlink.com 1.10,2013-07-29 08:06:00,
2013-07-29 04:21:00,68.5,68.0,29.91,West,271,0.0,0.0,98,0.00,,,0.01,weatherlink.com 1.10,2013-07-29 08:21:00,
2013-07-29 04:36:00,68.2,67.0,29.91,West,271,0.0,0.0,97,0.00,,,0.01,weatherlink.com 1.10,2013-07-29 08:36:00,
2013-07-29 04:51:00,67.9,67.0,29.91,West,271,0.0,0.0,97,0.00,,,0.01,weatherlink.com 1.10,2013-07-29 08:51:00,
2013-07-29 05:06:00,67.6,67.0,29.91,West,271,0.0,0.0,97,0.00,,,0.01,weatherlink.com 1.10,2013-07-29 09:06:00,
2013-07-29 05:21:00,67.2,66.0,29.91,West,271,0.0,0.0,97,0.00,,,0.01,weatherlink.com 1.10,2013-07-29 09:21:00,
2013-07-29 05:36:00,67.1,67.0,29.91,West,271,0.0,1.0,98,0.00,,,0.01,weatherlink.com 1.10,2013-07-29 09:36:00,
2013-07-29 05:51:00,66.9,66.0,29.92,West,271,0.0,0.0,98,0.00,,,0.01,weatherlink.com 1.10,2013-07-29 09:51:00,
2013-07-29 06:06:00,66.7,66.0,29.92,West,271,0.0,0.0,98,0.00,,,0.01,weatherlink.com 1.10,2013-07-29 10:06:00,
2013-07-29 06:21:00,66.7,66.0,29.93,West,271,0.0,0.0,98,0.00,,,0.01,weatherlink.com 1.10,2013-07-29 10:21:00,
2013-07-29 06:51:00,67.2,67.0,29.94,West,271,0.0,1.0,98,0.00,,,0.01,weatherlink.com 1.10,2013-07-29 10:51:00,
2013-07-29 07:06:00,67.4,67.0,29.93,West,271,0.0,2.0,98,0.00,,,0.01,weatherlink.com 1.10,2013-07-29 11:06:00,
2013-07-29 08:21:00,69.4,69.0,29.97,NNW,337,0.0,3.0,97,0.00,,,0.01,weatherlink.com 1.10,2013-07-29 12:21:00,
2013-07-29 08:36:00,70.5,69.0,29.96,WNW,300,0.0,1.0,95,0.00,,,0.01,weatherlink.com 1.10,2013-07-29 12:36:00,
2013-07-29 08:51:00,72.1,69.0,29.96,WNW,298,1.0,2.0,90,0.00,,,0.01,weatherlink.com 1.10,2013-07-29 12:51:00,
2013-07-29 09:06:00,74.1,70.0,29.97,WNW,296,1.0,2.0,86,0.00,,,0.01,weatherlink.com 1.10,2013-07-29 13:06:00,
2013-07-29 09:36:00,77.4,70.0,29.98,West,275,2.0,2.0,79,0.00,,,0.01,weatherlink.com 1.10,2013-07-29 13:36:00,
2013-07-29 10:06:00,78.2,69.0,29.98,ENE,57,0.0,3.0,73,0.00,,,0.01,weatherlink.com 1.10,2013-07-29 14:06:00,
2013-07-29 10:21:00,79.1,69.0,29.99,NNE,26,1.0,3.0,72,0.00,,,0.01,weatherlink.com 1.10,2013-07-29 14:21:00,
2013-07-29 10:36:00,79.8,70.0,29.98,NE,49,0.0,3.0,72,0.00,,,0.01,weatherlink.com 1.10,2013-07-29 14:36:00,
2013-07-29 10:51:00,80.8,71.0,29.98,NW,316,0.0,2.0,72,0.01,,,0.02,weatherlink.com 1.10,2013-07-29 14:51:00,
2013-07-29 11:37:00,82.1,69.0,29.98,NNW,331,0.0,4.0,64,0.01,,,0.02,weatherlink.com 1.10,2013-07-29 15:37:00,
2013-07-29 11:52:00,81.8,68.0,29.97,NE,36,1.0,3.0,64,0.00,,,0.02,weatherlink.com 1.10,2013-07-29 15:52:00,
2013-07-29 12:07:00,82.2,70.0,29.97,NNW,338,0.0,2.0,67,0.00,,,0.02,weatherlink.com 1.10,2013-07-29 16:07:00,
2013-07-29 12:22:00,83.3,68.0,29.97,NW,309,0.0,3.0,60,0.00,,,0.02,weatherlink.com 1.10,2013-07-29 16:22:00,
2013-07-29 12:37:00,83.9,69.0,29.97,WNW,300,2.0,3.0,61,0.00,,,0.02,weatherlink.com 1.10,2013-07-29 16:37:00,
2013-07-29 13:07:00,83.4,68.0,29.96,WNW,286,0.0,2.0,61,0.00,,,0.02,weatherlink.com 1.10,2013-07-29 17:07:00,
2013-07-29 13:22:00,83.1,69.0,29.96,WNW,298,1.0,9.0,62,0.00,,,0.02,weatherlink.com 1.10,2013-07-29 17:22:00,
2013-07-29 13:52:00,82.7,67.0,29.96,WNW,289,0.0,4.0,59,0.00,,,0.02,weatherlink.com 1.10,2013-07-29 17:52:00,
2013-07-29 14:07:00,83.0,67.0,29.96,West,277,2.0,5.0,58,0.00,,,0.02,weatherlink.com 1.10,2013-07-29 18:07:00,
2013-07-29 14:22:00,83.2,67.0,29.96,NW,315,0.0,5.0,58,0.00,,,0.02,weatherlink.com 1.10,2013-07-29 18:22:00,
2013-07-29 14:52:00,83.4,67.0,29.96,West,276,1.0,7.0,58,0.00,,,0.02,weatherlink.com 1.10,2013-07-29 18:52:00,
2013-07-29 15:07:00,83.3,65.0,29.96,West,268,1.0,8.0,55,0.00,,,0.02,weatherlink.com 1.10,2013-07-29 19:07:00,
2013-07-29 15:22:00,83.9,65.0,29.96,West,267,0.0,6.0,54,0.00,,,0.02,weatherlink.com 1.10,2013-07-29 19:22:00,
2013-07-29 15:52:00,83.6,65.0,29.96,WSW,251,0.0,7.0,53,0.00,,,0.02,weatherlink.com 1.10,2013-07-29 19:52:00,
2013-07-29 16:07:00,83.5,64.0,29.96,SW,232,0.0,7.0,52,0.00,,,0.02,weatherlink.com 1.10,2013-07-29 20:07:00,
2013-07-29 16:22:00,83.4,62.0,29.96,West,259,4.0,11.0,49,0.00,,,0.02,weatherlink.com 1.10,2013-07-29 20:22:00,
2013-07-29 16:37:00,83.1,61.0,29.96,NW,304,2.0,7.0,47,0.00,,,0.02,weatherlink.com 1.10,2013-07-29 20:37:00,
2013-07-29 16:52:00,82.8,58.0,29.97,WSW,257,6.0,8.0,43,0.00,,,0.02,weatherlink.com 1.10,2013-07-29 20:52:00,
2013-07-29 17:07:00,82.8,57.0,29.97,NW,308,2.0,5.0,42,0.00,,,0.02,weatherlink.com 1.10,2013-07-29 21:07:00,
2013-07-29 17:22:00,82.7,57.0,29.97,NW,311,1.0,9.0,42,0.00,,,0.02,weatherlink.com 1.10,2013-07-29 21:22:00,
2013-07-29 17:37:00,82.5,57.0,29.96,West,279,0.0,7.0,42,0.00,,,0.02,weatherlink.com 1.10,2013-07-29 21:37:00,
2013-07-29 17:52:00,82.4,58.0,29.97,WNW,294,0.0,3.0,44,0.00,,,0.02,weatherlink.com 1.10,2013-07-29 21:52:00,
2013-07-29 18:07:00,82.0,59.0,29.97,West,273,0.0,6.0,45,0.00,,,0.02,weatherlink.com 1.10,2013-07-29 22:07:00,
2013-07-29 18:22:00,81.6,58.0,29.97,NW,313,0.0,6.0,44,0.00,,,0.02,weatherlink.com 1.10,2013-07-29 22:22:00,
2013-07-29 18:52:00,80.8,57.0,29.98,WNW,301,2.0,7.0,44,0.00,,,0.02,weatherlink.com 1.10,2013-07-29 22:52:00,
2013-07-29 19:22:00,79.7,57.0,29.99,West,261,0.0,5.0,46,0.00,,,0.02,weatherlink.com 1.10,2013-07-29 23:22:00,
2013-07-29 19:37:00,78.9,57.0,29.99,WNW,295,0.0,4.0,48,0.00,,,0.02,weatherlink.com 1.10,2013-07-29 23:37:00,
2013-07-29 19:52:00,78.1,58.0,30.00,WNW,292,0.0,1.0,51,0.00,,,0.02,weatherlink.com 1.10,2013-07-29 23:52:00,
2013-07-29 20:07:00,77.1,58.0,30.00,WNW,292,0.0,1.0,51,0.00,,,0.02,weatherlink.com 1.10,2013-07-30 00:07:00,
2013-07-29 20:22:00,76.1,58.0,30.01,WNW,292,0.0,1.0,54,0.00,,,0.02,weatherlink.com 1.10,2013-07-30 00:22:00,
2013-07-29 20:37:00,75.1,58.0,30.01,WNW,292,0.0,0.0,56,0.00,,,0.02,weatherlink.com 1.10,2013-07-30 00:37:00,
2013-07-29 21:22:00,72.3,59.0,30.03,WNW,292,0.0,0.0,64,0.00,,,0.02,weatherlink.com 1.10,2013-07-30 01:22:00,
2013-07-29 21:37:00,71.6,60.0,30.03,WNW,292,0.0,0.0,67,0.00,,,0.02,weatherlink.com 1.10,2013-07-30 01:37:00,
2013-07-29 21:52:00,70.8,60.0,30.04,WNW,292,0.0,0.0,69,0.00,,,0.02,weatherlink.com 1.10,2013-07-30 01:52:00,
2013-07-29 22:07:00,69.9,60.0,30.04,WNW,292,0.0,0.0,70,0.00,,,0.02,weatherlink.com 1.10,2013-07-30 02:07:00,
2013-07-29 22:23:00,69.2,60.0,30.04,WNW,292,0.0,0.0,72,0.00,,,0.02,weatherlink.com 1.10,2013-07-30 02:23:00,
2013-07-29 22:38:00,68.5,60.0,30.04,WNW,292,0.0,0.0,73,0.00,,,0.02,weatherlink.com 1.10,2013-07-30 02:38:00,
2013-07-29 22:53:00,67.8,60.0,30.05,WNW,292,0.0,0.0,75,0.00,,,0.02,weatherlink.com 1.10,2013-07-30 02:53:00,
2013-07-29 23:08:00,67.2,60.0,30.05,WNW,292,0.0,0.0,77,0.00,,,0.02,weatherlink.com 1.10,2013-07-30 03:08:00,
2013-07-29 23:23:00,66.6,60.0,30.05,WNW,292,0.0,0.0,78,0.00,,,0.02,weatherlink.com 1.10,2013-07-30 03:23:00,
2013-07-29 23:38:00,66.1,60.0,30.05,WNW,292,0.0,0.0,80,0.00,,,0.02,weatherlink.com 1.10,2013-07-30 03:38:00,
2013-07-29 23:53:00,65.6,60.0,30.06,WNW,292,0.0,0.0,81,0.00,,,0.02,weatherlink.com 1.10,2013-07-30 03:53:00,